Time,TemperatureF,DewpointF,PressureIn,WindDirection,WindDirectionDegrees,WindSpeedMPH,WindSpeedGustMPH,Humidity,HourlyPrecipIn,Conditions,Clouds,dailyrainin,SoftwareType,DateUTC
2013-02-16 00:00:00,34.9,28.4,30.01,ENE,67,4.0,14.0,77,0.00,,,0.00,meteohub,2013-02-16 05:00:00,
2013-02-16 00:05:00,34.5,28.4,30.00,NE,49,6.0,13.0,78,0.00,,,0.00,meteohub,2013-02-16 05:05:00,
2013-02-16 00:10:00,34.5,28.8,30.00,NNE,31,6.0,12.0,79,0.00,,,0.00,meteohub,2013-02-16 05:10:00,
2013-02-16 00:15:00,34.3,28.6,30.00,NE,53,4.0,11.0,79,0.00,,,0.00,meteohub,2013-02-16 05:15:00,
2013-02-16 00:20:00,34.2,28.6,30.00,ENE,67,7.0,11.0,80,0.00,,,0.00,meteohub,2013-02-16 05:20:00,
2013-02-16 00:23:00,34.2,28.6,30.00,NE,43,4.0,11.0,80,0.00,,,0.00,meteohub,2013-02-16 05:23:00,
2013-02-16 00:28:00,34.0,28.8,30.00,NNE,21,4.0,14.0,81,0.00,,,0.00,meteohub,2013-02-16 05:28:00,
2013-02-16 00:33:00,33.8,28.9,30.00,NE,51,7.0,14.0,82,0.00,,,0.00,meteohub,2013-02-16 05:33:00,
2013-02-16 00:38:00,33.6,28.8,30.00,NNE,29,5.0,14.0,82,0.00,,,0.00,meteohub,2013-02-16 05:38:00,
2013-02-16 00:43:00,33.4,28.8,30.00,ENE,60,6.0,11.0,83,0.00,,,0.00,meteohub,2013-02-16 05:43:00,
2013-02-16 00:48:00,33.4,28.8,30.00,ENE,63,1.0,10.0,83,0.00,,,0.00,meteohub,2013-02-16 05:48:00,
2013-02-16 00:53:00,33.3,28.9,30.00,NNE,23,3.0,10.0,84,0.00,,,0.00,meteohub,2013-02-16 05:53:00,
2013-02-16 00:58:00,33.3,28.9,30.00,NE,38,5.0,10.0,84,0.00,,,0.00,meteohub,2013-02-16 05:58:00,
2013-02-16 01:03:00,33.1,28.8,30.00,NNE,29,3.0,9.0,84,0.00,,,0.00,meteohub,2013-02-16 06:03:00,
2013-02-16 01:08:00,33.1,28.8,29.99,NNE,16,1.0,9.0,84,0.00,,,0.00,meteohub,2013-02-16 06:08:00,
2013-02-16 01:13:00,32.9,28.6,29.99,NE,41,8.0,9.0,84,0.00,,,0.00,meteohub,2013-02-16 06:13:00,
2013-02-16 01:18:00,32.7,28.4,29.99,NE,47,8.0,10.0,84,0.00,,,0.00,meteohub,2013-02-16 06:18:00,
2013-02-16 01:23:00,32.7,28.2,29.99,NNE,26,5.0,10.0,83,0.00,,,0.00,meteohub,2013-02-16 06:23:00,
2013-02-16 01:28:00,32.5,27.7,29.99,NE,43,6.0,11.0,82,0.00,,,0.00,meteohub,2013-02-16 06:28:00,
2013-02-16 01:33:00,32.5,27.7,29.99,NNE,30,6.0,11.0,82,0.00,,,0.00,meteohub,2013-02-16 06:33:00,
2013-02-16 01:38:00,32.5,28.0,29.98,NNE,30,1.0,11.0,83,0.00,,,0.00,meteohub,2013-02-16 06:38:00,
2013-02-16 01:43:00,32.4,27.5,29.98,NNE,20,8.0,9.0,82,0.00,,,0.00,meteohub,2013-02-16 06:43:00,
2013-02-16 01:48:00,32.4,27.5,29.98,NE,56,3.0,9.0,82,0.00,,,0.00,meteohub,2013-02-16 06:48:00,
2013-02-16 01:53:00,32.4,27.5,29.98,NE,44,2.0,9.0,82,0.00,,,0.00,meteohub,2013-02-16 06:53:00,
2013-02-16 01:58:00,32.2,27.3,29.98,NE,38,3.0,9.0,82,0.00,,,0.00,meteohub,2013-02-16 06:58:00,
2013-02-16 02:03:00,32.2,27.0,29.98,NE,46,1.0,9.0,81,0.00,,,0.00,meteohub,2013-02-16 07:03:00,
2013-02-16 02:08:00,32.0,26.8,29.97,NE,38,4.0,9.0,81,0.00,,,0.00,meteohub,2013-02-16 07:08:00,
2013-02-16 02:13:00,31.8,26.4,29.97,NNE,23,5.0,8.0,80,0.00,,,0.00,meteohub,2013-02-16 07:13:00,
2013-02-16 02:18:00,31.8,26.4,29.97,NE,53,4.0,11.0,80,0.00,,,0.00,meteohub,2013-02-16 07:18:00,
2013-02-16 02:23:00,31.8,26.4,29.97,NE,39,4.0,11.0,80,0.00,,,0.00,meteohub,2013-02-16 07:23:00,
2013-02-16 02:28:00,31.6,25.9,29.97,NE,44,3.0,11.0,79,0.00,,,0.00,meteohub,2013-02-16 07:28:00,
2013-02-16 02:34:00,31.6,25.9,29.97,WNW,285,1.0,7.0,79,0.00,,,0.00,meteohub,2013-02-16 07:34:00,
2013-02-16 02:39:00,31.5,25.3,29.97,North,349,2.0,9.0,78,0.00,,,0.00,meteohub,2013-02-16 07:39:00,
2013-02-16 02:44:00,31.5,25.3,29.97,NE,36,9.0,9.0,78,0.00,,,0.00,meteohub,2013-02-16 07:44:00,
2013-02-16 02:49:00,31.5,25.2,29.97,NNE,19,7.0,9.0,77,0.00,,,0.00,meteohub,2013-02-16 07:49:00,
2013-02-16 02:54:00,31.5,25.2,29.96,NNE,22,3.0,9.0,77,0.00,,,0.00,meteohub,2013-02-16 07:54:00,
2013-02-16 02:59:00,31.3,25.0,29.96,NE,43,5.0,9.0,77,0.00,,,0.00,meteohub,2013-02-16 07:59:00,
2013-02-16 03:04:00,31.3,25.0,29.96,NE,38,2.0,9.0,77,0.00,,,0.00,meteohub,2013-02-16 08:04:00,
2013-02-16 03:09:00,31.1,24.8,29.96,NE,40,1.0,9.0,77,0.00,,,0.00,meteohub,2013-02-16 08:09:00,
2013-02-16 03:14:00,30.9,24.6,29.96,NE,43,3.0,9.0,77,0.00,,,0.00,meteohub,2013-02-16 08:14:00,
2013-02-16 03:19:00,30.9,24.6,29.96,NNE,15,6.0,8.0,77,0.00,,,0.00,meteohub,2013-02-16 08:19:00,
2013-02-16 03:24:00,30.9,24.6,29.96,NE,36,3.0,8.0,77,0.00,,,0.00,meteohub,2013-02-16 08:24:00,
2013-02-16 03:29:00,30.9,24.3,29.95,ENE,62,5.0,8.0,76,0.00,,,0.00,meteohub,2013-02-16 08:29:00,
2013-02-16 03:34:00,30.7,24.4,29.95,NE,43,2.0,7.0,77,0.00,,,0.00,meteohub,2013-02-16 08:34:00,
2013-02-16 03:39:00,30.7,24.4,29.95,North,352,0.0,7.0,77,0.00,,,0.00,meteohub,2013-02-16 08:39:00,
2013-02-16 03:44:00,30.6,24.3,29.95,ENE,73,4.0,7.0,77,0.00,,,0.00,meteohub,2013-02-16 08:44:00,
2013-02-16 03:49:00,30.6,24.3,29.95,NE,51,2.0,7.0,77,0.00,,,0.00,meteohub,2013-02-16 08:49:00,
2013-02-16 03:54:00,30.6,24.3,29.94,NE,55,3.0,7.0,77,0.00,,,0.00,meteohub,2013-02-16 08:54:00,
2013-02-16 03:59:00,30.4,24.1,29.94,ENE,61,3.0,7.0,77,0.00,,,0.00,meteohub,2013-02-16 08:59:00,
2013-02-16 04:04:00,30.4,24.3,29.94,ENE,68,6.0,7.0,78,0.00,,,0.00,meteohub,2013-02-16 09:04:00,
2013-02-16 04:09:00,30.2,24.3,29.94,NE,50,2.0,6.0,78,0.00,,,0.00,meteohub,2013-02-16 09:09:00,
2013-02-16 04:14:00,30.2,23.9,29.94,NE,49,2.0,6.0,77,0.00,,,0.00,meteohub,2013-02-16 09:14:00,
2013-02-16 04:19:00,30.2,23.9,29.94,ENE,72,3.0,6.0,77,0.00,,,0.00,meteohub,2013-02-16 09:19:00,
2013-02-16 04:24:00,30.0,23.7,29.94,ENE,58,7.0,7.0,77,0.00,,,0.00,meteohub,2013-02-16 09:24:00,
2013-02-16 04:29:00,30.0,23.7,29.93,NE,46,5.0,7.0,77,0.00,,,0.00,meteohub,2013-02-16 09:29:00,
2013-02-16 04:34:00,29.8,23.5,29.94,NNE,31,5.0,8.0,77,0.00,,,0.00,meteohub,2013-02-16 09:34:00,
2013-02-16 04:39:00,29.8,23.5,29.94,NE,39,7.0,8.0,77,0.00,,,0.00,meteohub,2013-02-16 09:39:00,
2013-02-16 04:44:00,29.8,23.5,29.94,ENE,71,1.0,9.0,77,0.00,,,0.00,meteohub,2013-02-16 09:44:00,
2013-02-16 04:49:00,29.8,23.2,29.94,NNE,23,2.0,9.0,76,0.00,,,0.00,meteohub,2013-02-16 09:49:00,
2013-02-16 04:54:00,29.8,23.5,29.94,NE,44,2.0,8.0,77,0.00,,,0.00,meteohub,2013-02-16 09:54:00,
2013-02-16 04:59:00,29.7,23.4,29.93,ENE,63,7.0,7.0,77,0.00,,,0.00,meteohub,2013-02-16 09:59:00,
2013-02-16 05:04:00,29.7,23.4,29.94,NNE,20,1.0,7.0,77,0.00,,,0.00,meteohub,2013-02-16 10:04:00,
2013-02-16 05:09:00,29.7,23.4,29.94,NE,46,6.0,7.0,77,0.00,,,0.00,meteohub,2013-02-16 10:09:00,
2013-02-16 05:14:00,29.7,23.4,29.94,NE,50,0.0,7.0,77,0.00,,,0.00,meteohub,2013-02-16 10:14:00,
2013-02-16 05:19:00,29.7,23.4,29.94,NE,52,2.0,7.0,77,0.00,,,0.00,meteohub,2013-02-16 10:19:00,
2013-02-16 05:24:00,29.5,23.2,29.94,NE,53,4.0,7.0,77,0.00,,,0.00,meteohub,2013-02-16 10:24:00,
2013-02-16 05:29:00,29.5,23.2,29.94,ESE,103,2.0,8.0,77,0.00,,,0.00,meteohub,2013-02-16 10:29:00,
2013-02-16 05:34:00,29.5,23.2,29.94,East,81,2.0,8.0,77,0.00,,,0.00,meteohub,2013-02-16 10:34:00,
2013-02-16 05:39:00,29.5,23.2,29.94,NNE,28,3.0,8.0,77,0.00,,,0.00,meteohub,2013-02-16 10:39:00,
2013-02-16 05:44:00,29.5,23.2,29.94,NNE,32,4.0,9.0,77,0.00,,,0.00,meteohub,2013-02-16 10:44:00,
2013-02-16 05:49:00,29.5,22.8,29.95,NNE,32,6.0,9.0,76,0.00,,,0.00,meteohub,2013-02-16 10:49:00,
2013-02-16 05:54:00,29.5,22.8,29.95,NNE,26,6.0,9.0,76,0.00,,,0.00,meteohub,2013-02-16 10:54:00,
2013-02-16 05:59:00,29.5,22.8,29.94,NE,55,1.0,9.0,76,0.00,,,0.00,meteohub,2013-02-16 10:59:00,
2013-02-16 06:04:00,29.5,22.8,29.94,ENE,60,3.0,9.0,76,0.00,,,0.00,meteohub,2013-02-16 11:04:00,
2013-02-16 06:10:00,29.5,22.8,29.94,NNE,22,4.0,9.0,76,0.00,,,0.00,meteohub,2013-02-16 11:10:00,
2013-02-16 06:15:00,29.5,22.8,29.94,NE,55,5.0,8.0,76,0.00,,,0.00,meteohub,2013-02-16 11:15:00,
2013-02-16 06:20:00,29.3,22.6,29.94,WSW,257,1.0,9.0,76,0.00,,,0.00,meteohub,2013-02-16 11:20:00,
2013-02-16 06:25:00,29.3,22.6,29.95,NNE,27,5.0,9.0,76,0.00,,,0.00,meteohub,2013-02-16 11:25:00,
2013-02-16 06:30:00,29.3,22.3,29.95,NNE,33,2.0,9.0,75,0.00,,,0.00,meteohub,2013-02-16 11:30:00,
2013-02-16 06:35:00,29.3,22.6,29.95,NNE,29,2.0,7.0,76,0.00,,,0.00,meteohub,2013-02-16 11:35:00,
2013-02-16 06:40:00,29.5,22.5,29.95,North,356,0.0,6.0,75,0.00,,,0.00,meteohub,2013-02-16 11:40:00,
2013-02-16 06:45:00,29.5,22.5,29.95,NE,44,2.0,6.0,75,0.00,,,0.00,meteohub,2013-02-16 11:45:00,
2013-02-16 06:50:00,29.3,22.6,29.95,NE,46,4.0,6.0,76,0.00,,,0.00,meteohub,2013-02-16 11:50:00,
2013-02-16 06:55:00,29.3,22.6,29.95,ENE,75,0.0,6.0,76,0.00,,,0.00,meteohub,2013-02-16 11:55:00,
2013-02-16 07:00:00,29.3,22.6,29.94,NE,45,0.0,5.0,76,0.00,,,0.00,meteohub,2013-02-16 12:00:00,
2013-02-16 07:05:00,29.1,22.5,29.94,NE,56,3.0,5.0,76,0.00,,,0.00,meteohub,2013-02-16 12:05:00,
2013-02-16 07:10:00,29.1,22.8,29.94,ENE,68,2.0,5.0,77,0.00,,,0.00,meteohub,2013-02-16 12:10:00,
2013-02-16 07:15:00,29.1,22.8,29.93,ENE,61,0.0,4.0,77,0.00,,,0.00,meteohub,2013-02-16 12:15:00,
2013-02-16 07:20:00,29.1,22.8,29.94,ESE,109,0.0,4.0,77,0.00,,,0.00,meteohub,2013-02-16 12:20:00,
2013-02-16 07:25:00,28.9,23.0,29.94,East,93,2.0,4.0,78,0.00,,,0.00,meteohub,2013-02-16 12:25:00,
2013-02-16 07:30:00,28.9,23.0,29.94,SSE,165,0.0,4.0,78,0.00,,,0.00,meteohub,2013-02-16 12:30:00,
2013-02-16 07:35:00,28.9,23.0,29.94,ESE,113,0.0,3.0,78,0.00,,,0.00,meteohub,2013-02-16 12:35:00,
2013-02-16 07:40:00,28.8,23.0,29.94,ENE,65,4.0,4.0,79,0.00,,,0.00,meteohub,2013-02-16 12:40:00,
2013-02-16 07:45:00,28.8,23.0,29.94,East,91,1.0,3.0,79,0.00,,,0.00,meteohub,2013-02-16 12:45:00,
2013-02-16 07:50:00,28.8,23.0,29.93,ESE,102,0.0,4.0,79,0.00,,,0.00,meteohub,2013-02-16 12:50:00,
2013-02-16 07:55:00,28.8,23.0,29.94,NE,45,0.0,4.0,79,0.00,,,0.00,meteohub,2013-02-16 12:55:00,
2013-02-16 08:00:00,28.8,23.0,29.94,NNE,32,0.0,3.0,79,0.00,,,0.00,meteohub,2013-02-16 13:00:00,
2013-02-16 08:05:00,28.8,23.0,29.93,East,100,0.0,3.0,79,0.00,,,0.00,meteohub,2013-02-16 13:05:00,
2013-02-16 08:10:00,28.8,23.4,29.94,NNE,33,0.0,3.0,80,0.00,,,0.00,meteohub,2013-02-16 13:10:00,
2013-02-16 08:15:00,28.8,23.0,29.94,ESE,105,1.0,3.0,79,0.00,,,0.00,meteohub,2013-02-16 13:15:00,
2013-02-16 08:20:00,28.8,23.0,29.94,ESE,111,0.0,2.0,79,0.00,,,0.00,meteohub,2013-02-16 13:20:00,
2013-02-16 08:25:00,28.9,23.2,29.94,ENE,62,1.0,2.0,79,0.00,,,0.00,meteohub,2013-02-16 13:25:00,
2013-02-16 08:30:00,28.9,23.2,29.94,NE,49,0.0,2.0,79,0.00,,,0.00,meteohub,2013-02-16 13:30:00,
2013-02-16 08:35:00,28.9,23.2,29.94,East,85,0.0,1.0,79,0.00,,,0.00,meteohub,2013-02-16 13:35:00,
2013-02-16 08:40:00,29.3,23.5,29.94,West,259,0.0,1.0,79,0.00,,,0.00,meteohub,2013-02-16 13:40:00,
2013-02-16 08:45:00,29.5,23.5,29.94,ENE,77,0.0,1.0,78,0.00,,,0.00,meteohub,2013-02-16 13:45:00,
2013-02-16 08:50:00,29.7,23.4,29.94,ENE,62,0.0,1.0,77,0.00,,,0.00,meteohub,2013-02-16 13:50:00,
2013-02-16 08:55:00,29.8,23.2,29.94,NE,39,0.0,1.0,76,0.00,,,0.00,meteohub,2013-02-16 13:55:00,
2013-02-16 09:00:00,30.0,23.4,29.94,NE,39,0.0,1.0,76,0.00,,,0.00,meteohub,2013-02-16 14:00:00,
2013-02-16 09:05:00,30.0,23.0,29.94,ESE,103,1.0,2.0,75,0.00,,,0.00,meteohub,2013-02-16 14:05:00,
2013-02-16 09:10:00,30.0,23.0,29.94,ENE,58,0.0,3.0,75,0.00,,,0.00,meteohub,2013-02-16 14:10:00,
2013-02-16 09:15:00,30.0,23.0,29.94,NE,49,1.0,3.0,75,0.00,,,0.00,meteohub,2013-02-16 14:15:00,
2013-02-16 09:20:00,29.8,23.2,29.93,ENE,62,0.0,4.0,76,0.00,,,0.00,meteohub,2013-02-16 14:20:00,
2013-02-16 09:25:00,30.2,23.5,29.92,NE,36,1.0,4.0,76,0.00,,,0.00,meteohub,2013-02-16 14:25:00,
2013-02-16 09:31:00,30.6,23.5,29.92,NE,43,3.0,4.0,75,0.00,,,0.00,meteohub,2013-02-16 14:31:00,
2013-02-16 09:36:00,30.7,23.7,29.92,NE,40,3.0,7.0,75,0.00,,,0.00,meteohub,2013-02-16 14:36:00,
2013-02-16 09:41:00,30.9,23.5,29.92,East,83,1.0,7.0,74,0.00,,,0.00,meteohub,2013-02-16 14:41:00,
2013-02-16 09:46:00,30.9,22.6,29.92,NNE,30,0.0,8.0,71,0.00,,,0.00,meteohub,2013-02-16 14:46:00,
2013-02-16 09:51:00,31.1,23.2,29.91,NE,39,0.0,8.0,72,0.00,,,0.00,meteohub,2013-02-16 14:51:00,
2013-02-16 09:56:00,31.6,23.7,29.92,East,98,3.0,8.0,72,0.00,,,0.00,meteohub,2013-02-16 14:56:00,
2013-02-16 10:01:00,31.8,23.9,29.92,North,6,3.0,7.0,72,0.00,,,0.00,meteohub,2013-02-16 15:01:00,
2013-02-16 10:06:00,31.5,22.8,29.92,NNE,26,7.0,8.0,70,0.00,,,0.00,meteohub,2013-02-16 15:06:00,
2013-02-16 10:11:00,31.3,22.6,29.92,NNW,344,1.0,8.0,70,0.00,,,0.00,meteohub,2013-02-16 15:11:00,
2013-02-16 10:16:00,31.5,23.2,29.91,NNW,330,1.0,8.0,71,0.00,,,0.00,meteohub,2013-02-16 15:16:00,
2013-02-16 10:21:00,31.5,22.5,29.91,NE,36,0.0,8.0,69,0.00,,,0.00,meteohub,2013-02-16 15:21:00,
2013-02-16 10:26:00,31.5,22.5,29.92,ESE,120,0.0,6.0,69,0.00,,,0.00,meteohub,2013-02-16 15:26:00,
2013-02-16 10:31:00,31.6,22.6,29.92,WNW,300,1.0,6.0,69,0.00,,,0.00,meteohub,2013-02-16 15:31:00,
2013-02-16 10:36:00,31.8,23.2,29.92,NW,307,0.0,3.0,70,0.00,,,0.00,meteohub,2013-02-16 15:36:00,
2013-02-16 10:41:00,32.5,23.2,29.91,ENE,76,1.0,2.0,68,0.00,,,0.00,meteohub,2013-02-16 15:41:00,
2013-02-16 10:46:00,32.5,23.2,29.91,NE,55,2.0,2.0,68,0.00,,,0.00,meteohub,2013-02-16 15:46:00,
2013-02-16 10:51:00,32.4,24.3,29.91,South,174,2.0,5.0,72,0.00,,,0.00,meteohub,2013-02-16 15:51:00,
2013-02-16 10:56:00,32.4,24.1,29.91,SE,142,1.0,5.0,71,0.00,,,0.00,meteohub,2013-02-16 15:56:00,
2013-02-16 11:01:00,32.4,23.7,29.91,NE,55,0.0,5.0,70,0.00,,,0.00,meteohub,2013-02-16 16:01:00,
2013-02-16 11:06:00,32.5,23.9,29.91,NNE,16,1.0,3.0,70,0.00,,,0.00,meteohub,2013-02-16 16:06:00,
2013-02-16 11:11:00,32.5,23.9,29.91,ENE,65,2.0,2.0,70,0.00,,,0.00,meteohub,2013-02-16 16:11:00,
2013-02-16 11:16:00,32.5,23.9,29.91,NE,49,0.0,5.0,70,0.00,,,0.00,meteohub,2013-02-16 16:16:00,
2013-02-16 11:21:00,32.7,24.1,29.90,NE,53,0.0,5.0,70,0.00,,,0.00,meteohub,2013-02-16 16:21:00,
2013-02-16 11:26:00,32.4,24.1,29.90,NNE,32,2.0,5.0,71,0.00,,,0.00,meteohub,2013-02-16 16:26:00,
2013-02-16 11:31:00,31.8,24.1,29.90,NE,39,3.0,6.0,73,0.00,,,0.00,meteohub,2013-02-16 16:31:00,
2013-02-16 11:36:00,31.3,24.3,29.90,NE,55,2.0,6.0,75,0.00,,,0.00,meteohub,2013-02-16 16:36:00,
2013-02-16 11:41:00,30.7,24.4,29.90,NNW,335,0.0,9.0,77,0.00,,,0.00,meteohub,2013-02-16 16:41:00,
2013-02-16 11:46:00,30.4,24.1,29.90,NE,41,3.0,9.0,77,0.00,,,0.00,meteohub,2013-02-16 16:46:00,
2013-02-16 11:51:00,29.7,23.9,29.90,NNE,29,1.0,7.0,79,0.00,,,0.00,meteohub,2013-02-16 16:51:00,
2013-02-16 11:57:00,29.1,24.1,29.89,NNE,20,5.0,8.0,81,0.00,,,0.00,meteohub,2013-02-16 16:57:00,
2013-02-16 12:02:00,28.9,24.4,29.89,NE,55,2.0,8.0,83,0.00,,,0.00,meteohub,2013-02-16 17:02:00,
2013-02-16 12:07:00,28.6,24.6,29.89,ENE,69,4.0,8.0,85,0.00,,,0.00,meteohub,2013-02-16 17:07:00,
2013-02-16 12:12:00,28.2,24.6,29.90,ENE,63,2.0,7.0,86,0.00,,,0.00,meteohub,2013-02-16 17:12:00,
2013-02-16 12:17:00,27.9,24.8,29.89,NW,325,1.0,9.0,88,0.00,,,0.00,meteohub,2013-02-16 17:17:00,
2013-02-16 12:22:00,27.7,24.8,29.89,NE,46,8.0,9.0,89,0.00,,,0.00,meteohub,2013-02-16 17:22:00,
2013-02-16 12:27:00,27.3,24.4,29.89,NNE,30,3.0,9.0,89,0.00,,,0.00,meteohub,2013-02-16 17:27:00,
2013-02-16 12:32:00,27.1,24.6,29.89,ENE,64,3.0,9.0,90,0.00,,,0.00,meteohub,2013-02-16 17:32:00,
2013-02-16 12:37:00,27.0,24.4,29.89,NE,49,4.0,9.0,90,0.00,,,0.00,meteohub,2013-02-16 17:37:00,
2013-02-16 12:42:00,26.8,24.3,29.89,NNE,16,3.0,9.0,90,0.00,,,0.00,meteohub,2013-02-16 17:42:00,
2013-02-16 12:47:00,26.8,24.4,29.88,NE,40,5.0,9.0,91,0.00,,,0.00,meteohub,2013-02-16 17:47:00,
2013-02-16 12:52:00,26.8,24.3,29.88,NE,51,3.0,11.0,90,0.00,,,0.00,meteohub,2013-02-16 17:52:00,
2013-02-16 12:57:00,26.8,24.4,29.88,NE,43,6.0,11.0,91,0.00,,,0.00,meteohub,2013-02-16 17:57:00,
2013-02-16 13:02:00,26.6,24.6,29.88,ENE,62,4.0,11.0,92,0.00,,,0.00,meteohub,2013-02-16 18:02:00,
2013-02-16 13:07:00,26.6,24.6,29.87,NNE,32,4.0,10.0,92,0.00,,,0.00,meteohub,2013-02-16 18:07:00,
2013-02-16 13:12:00,26.8,24.8,29.87,NNE,25,7.0,10.0,92,0.00,,,0.00,meteohub,2013-02-16 18:12:00,
2013-02-16 13:17:00,27.0,25.0,29.87,NE,40,4.0,10.0,92,0.00,,,0.00,meteohub,2013-02-16 18:17:00,
2013-02-16 13:22:00,27.1,24.8,29.87,NE,43,2.0,12.0,91,0.00,,,0.00,meteohub,2013-02-16 18:22:00,
2013-02-16 13:27:00,27.3,24.8,29.87,East,94,5.0,12.0,90,0.00,,,0.00,meteohub,2013-02-16 18:27:00,
2013-02-16 13:32:00,27.3,24.4,29.87,NE,55,7.0,13.0,89,0.00,,,0.00,meteohub,2013-02-16 18:32:00,
2013-02-16 13:37:00,27.1,24.3,29.87,North,357,2.0,13.0,89,0.00,,,0.00,meteohub,2013-02-16 18:37:00,
2013-02-16 13:42:00,27.1,24.3,29.87,NNE,32,8.0,12.0,89,0.00,,,0.00,meteohub,2013-02-16 18:42:00,
2013-02-16 13:47:00,27.0,23.9,29.86,NNE,25,7.0,14.0,88,0.00,,,0.00,meteohub,2013-02-16 18:47:00,
2013-02-16 13:52:00,27.1,24.3,29.86,ENE,58,10.0,14.0,89,0.00,,,0.00,meteohub,2013-02-16 18:52:00,
2013-02-16 13:57:00,26.8,23.2,29.86,NNE,29,15.0,15.0,86,0.00,,,0.00,meteohub,2013-02-16 18:57:00,
2013-02-16 14:02:00,27.0,23.9,29.86,NNE,33,10.0,16.0,88,0.00,,,0.00,meteohub,2013-02-16 19:02:00,
2013-02-16 14:07:00,27.0,23.5,29.86,North,357,6.0,16.0,87,0.00,,,0.00,meteohub,2013-02-16 19:07:00,
2013-02-16 14:12:00,27.0,23.5,29.86,NNE,30,8.0,17.0,87,0.00,,,0.00,meteohub,2013-02-16 19:12:00,
2013-02-16 14:17:00,27.0,23.9,29.86,NE,49,8.0,17.0,88,0.00,,,0.00,meteohub,2013-02-16 19:17:00,
2013-02-16 14:22:00,27.1,24.1,29.86,NE,56,5.0,12.0,88,0.00,,,0.00,meteohub,2013-02-16 19:22:00,
2013-02-16 14:27:00,27.3,24.3,29.86,NE,38,4.0,12.0,88,0.00,,,0.00,meteohub,2013-02-16 19:27:00,
2013-02-16 14:32:00,27.3,23.9,29.86,ENE,68,6.0,11.0,87,0.00,,,0.00,meteohub,2013-02-16 19:32:00,
2013-02-16 14:37:00,27.3,23.2,29.86,NNE,30,7.0,15.0,84,0.00,,,0.00,meteohub,2013-02-16 19:37:00,
2013-02-16 14:42:00,27.3,22.3,29.86,East,82,5.0,15.0,81,0.00,,,0.00,meteohub,2013-02-16 19:42:00,
2013-02-16 14:47:00,27.1,21.7,29.86,NE,36,14.0,19.0,80,0.00,,,0.00,meteohub,2013-02-16 19:47:00,
2013-02-16 14:52:00,27.3,21.9,29.86,NE,53,14.0,20.0,80,0.00,,,0.00,meteohub,2013-02-16 19:52:00,
2013-02-16 14:57:00,27.5,21.6,29.86,WNW,289,1.0,20.0,78,0.00,,,0.00,meteohub,2013-02-16 19:57:00,
2013-02-16 15:02:00,27.5,20.7,29.86,NE,41,17.0,19.0,75,0.00,,,0.00,meteohub,2013-02-16 20:02:00,
2013-02-16 15:07:00,27.0,19.4,29.86,NNE,27,12.0,21.0,73,0.00,,,0.00,meteohub,2013-02-16 20:07:00,
2013-02-16 15:12:00,26.4,19.6,29.86,NE,39,6.0,22.0,75,0.00,,,0.00,meteohub,2013-02-16 20:12:00,
2013-02-16 15:17:00,26.4,19.2,29.87,NNE,25,6.0,25.0,74,0.00,,,0.00,meteohub,2013-02-16 20:17:00,
2013-02-16 15:22:00,26.2,18.9,29.87,NNE,15,9.0,27.0,73,0.00,,,0.00,meteohub,2013-02-16 20:22:00,
2013-02-16 15:27:00,26.4,18.9,29.87,NNW,330,2.0,27.0,73,0.00,,,0.00,meteohub,2013-02-16 20:27:00,
2013-02-16 15:32:00,26.4,18.9,29.87,NNE,32,6.0,27.0,73,0.00,,,0.00,meteohub,2013-02-16 20:32:00,
2013-02-16 15:37:00,26.8,18.7,29.87,NNE,32,8.0,20.0,71,0.00,,,0.00,meteohub,2013-02-16 20:37:00,
2013-02-16 15:42:00,27.1,19.4,29.87,ENE,72,10.0,20.0,72,0.00,,,0.00,meteohub,2013-02-16 20:42:00,
2013-02-16 15:47:00,27.1,19.0,29.87,NW,309,5.0,18.0,71,0.00,,,0.00,meteohub,2013-02-16 20:47:00,
2013-02-16 15:52:00,27.1,17.6,29.88,North,352,8.0,18.0,67,0.00,,,0.00,meteohub,2013-02-16 20:52:00,
2013-02-16 15:57:00,27.1,18.3,29.87,NNE,23,10.0,17.0,69,0.00,,,0.00,meteohub,2013-02-16 20:57:00,
2013-02-16 16:02:00,27.1,17.6,29.88,ENE,69,6.0,16.0,67,0.00,,,0.00,meteohub,2013-02-16 21:02:00,
2013-02-16 16:07:00,27.3,16.7,29.88,NNW,337,5.0,16.0,64,0.00,,,0.00,meteohub,2013-02-16 21:07:00,
2013-02-16 16:12:00,27.5,16.9,29.88,NE,51,11.0,19.0,64,0.00,,,0.00,meteohub,2013-02-16 21:12:00,
2013-02-16 16:17:00,27.7,16.3,29.88,NNE,23,10.0,20.0,62,0.00,,,0.00,meteohub,2013-02-16 21:17:00,
2013-02-16 16:22:00,27.7,16.3,29.88,North,10,4.0,20.0,62,0.00,,,0.00,meteohub,2013-02-16 21:22:00,
2013-02-16 16:27:00,27.7,15.3,29.89,NNE,23,7.0,20.0,59,0.00,,,0.00,meteohub,2013-02-16 21:27:00,
2013-02-16 16:32:00,27.9,15.4,29.89,ENE,67,3.0,16.0,59,0.00,,,0.00,meteohub,2013-02-16 21:32:00,
2013-02-16 16:37:00,27.9,14.5,29.89,NNE,13,0.0,16.0,57,0.00,,,0.00,meteohub,2013-02-16 21:37:00,
2013-02-16 16:42:00,27.9,13.5,29.89,NW,319,4.0,12.0,54,0.00,,,0.00,meteohub,2013-02-16 21:42:00,
2013-02-16 16:47:00,27.5,13.1,29.89,NNE,23,4.0,14.0,54,0.00,,,0.00,meteohub,2013-02-16 21:47:00,
2013-02-16 16:52:00,27.3,12.9,29.90,NNW,336,0.0,14.0,54,0.00,,,0.00,meteohub,2013-02-16 21:52:00,
2013-02-16 16:57:00,27.1,13.1,29.90,NE,38,7.0,14.0,55,0.00,,,0.00,meteohub,2013-02-16 21:57:00,
2013-02-16 17:02:00,27.1,12.2,29.90,NNE,29,6.0,13.0,53,0.00,,,0.00,meteohub,2013-02-16 22:02:00,
2013-02-16 17:07:00,27.1,10.9,29.90,NNW,328,5.0,17.0,50,0.00,,,0.00,meteohub,2013-02-16 22:07:00,
2013-02-16 17:12:00,26.8,11.1,29.91,NE,35,5.0,17.0,51,0.00,,,0.00,meteohub,2013-02-16 22:12:00,
2013-02-16 17:17:00,26.4,10.8,29.91,WNW,283,5.0,17.0,51,0.00,,,0.00,meteohub,2013-02-16 22:17:00,
2013-02-16 17:22:00,26.4,10.8,29.92,NNE,22,7.0,20.0,51,0.00,,,0.00,meteohub,2013-02-16 22:22:00,
2013-02-16 17:27:00,26.2,10.6,29.92,West,281,4.0,20.0,51,0.00,,,0.00,meteohub,2013-02-16 22:27:00,
2013-02-16 17:32:00,26.2,10.6,29.93,North,4,7.0,20.0,51,0.00,,,0.00,meteohub,2013-02-16 22:32:00,
2013-02-16 17:37:00,26.1,10.4,29.92,NE,44,6.0,25.0,51,0.00,,,0.00,meteohub,2013-02-16 22:37:00,
2013-02-16 17:42:00,25.9,10.2,29.93,North,352,9.0,25.0,51,0.00,,,0.00,meteohub,2013-02-16 22:42:00,
2013-02-16 17:47:00,25.7,10.0,29.93,North,6,3.0,25.0,51,0.00,,,0.00,meteohub,2013-02-16 22:47:00,
2013-02-16 17:52:00,25.5,10.4,29.93,NNW,342,5.0,25.0,52,0.00,,,0.00,meteohub,2013-02-16 22:52:00,
2013-02-16 17:57:00,25.3,10.2,29.93,NW,306,2.0,25.0,52,0.00,,,0.00,meteohub,2013-02-16 22:57:00,
2013-02-16 18:02:00,25.2,10.0,29.93,NE,36,6.0,23.0,52,0.00,,,0.00,meteohub,2013-02-16 23:02:00,
2013-02-16 18:07:00,25.0,9.9,29.94,NNE,20,7.0,19.0,52,0.00,,,0.00,meteohub,2013-02-16 23:07:00,
2013-02-16 18:12:00,24.8,9.7,29.94,NNE,18,4.0,15.0,52,0.00,,,0.00,meteohub,2013-02-16 23:12:00,
2013-02-16 18:17:00,24.6,9.9,29.94,NW,319,2.0,14.0,53,0.00,,,0.00,meteohub,2013-02-16 23:17:00,
2013-02-16 18:22:00,24.6,9.5,29.95,North,355,4.0,13.0,52,0.00,,,0.00,meteohub,2013-02-16 23:22:00,
2013-02-16 18:27:00,24.4,9.7,29.94,ENE,68,0.0,15.0,53,0.00,,,0.00,meteohub,2013-02-16 23:27:00,
2013-02-16 18:32:00,24.3,9.1,29.95,South,188,2.0,15.0,52,0.00,,,0.00,meteohub,2013-02-16 23:32:00,
2013-02-16 18:37:00,24.3,9.1,29.96,East,100,4.0,15.0,52,0.00,,,0.00,meteohub,2013-02-16 23:37:00,
2013-02-16 18:42:00,24.3,8.2,29.96,NE,44,13.0,15.0,50,0.00,,,0.00,meteohub,2013-02-16 23:42:00,
2013-02-16 18:47:00,24.1,7.7,29.95,WNW,300,6.0,18.0,49,0.00,,,0.00,meteohub,2013-02-16 23:47:00,
2013-02-16 18:52:00,24.1,7.7,29.96,NNE,16,17.0,20.0,49,0.00,,,0.00,meteohub,2013-02-16 23:52:00,
2013-02-16 18:57:00,23.9,7.5,29.96,NNW,346,13.0,25.0,49,0.00,,,0.00,meteohub,2013-02-16 23:57:00,
2013-02-16 19:02:00,23.7,8.2,29.97,NNW,343,6.0,25.0,51,0.00,,,0.00,meteohub,2013-02-17 00:02:00,
2013-02-16 19:07:00,23.7,8.6,29.97,ENE,78,3.0,25.0,52,0.00,,,0.00,meteohub,2013-02-17 00:07:00,
2013-02-16 19:13:00,23.4,8.8,29.97,NNW,342,2.0,23.0,53,0.00,,,0.00,meteohub,2013-02-17 00:13:00,
2013-02-16 19:18:00,23.4,9.5,29.98,North,6,3.0,23.0,55,0.00,,,0.00,meteohub,2013-02-17 00:18:00,
2013-02-16 19:23:00,23.2,9.9,29.98,NE,37,2.0,23.0,56,0.00,,,0.00,meteohub,2013-02-17 00:23:00,
2013-02-16 19:28:00,23.0,9.7,29.98,NW,306,3.0,20.0,56,0.00,,,0.00,meteohub,2013-02-17 00:28:00,
2013-02-16 19:33:00,22.8,9.9,29.98,WNW,287,3.0,16.0,57,0.00,,,0.00,meteohub,2013-02-17 00:33:00,
2013-02-16 19:38:00,22.8,9.9,29.98,NNE,13,8.0,16.0,57,0.00,,,0.00,meteohub,2013-02-17 00:38:00,
2013-02-16 19:43:00,22.6,10.0,29.99,WNW,300,2.0,16.0,58,0.00,,,0.00,meteohub,2013-02-17 00:43:00,
2013-02-16 19:48:00,22.6,10.0,29.99,NW,311,3.0,12.0,58,0.00,,,0.00,meteohub,2013-02-17 00:48:00,
2013-02-16 19:53:00,22.6,10.4,29.99,North,11,8.0,12.0,59,0.00,,,0.00,meteohub,2013-02-17 00:53:00,
2013-02-16 19:58:00,22.5,11.8,30.00,West,271,3.0,12.0,63,0.00,,,0.00,meteohub,2013-02-17 00:58:00,
2013-02-16 20:03:00,22.3,12.9,30.00,NNE,33,4.0,17.0,67,0.00,,,0.00,meteohub,2013-02-17 01:03:00,
2013-02-16 20:08:00,21.9,13.3,30.00,North,5,7.0,17.0,69,0.00,,,0.00,meteohub,2013-02-17 01:08:00,
2013-02-16 20:13:00,21.6,13.6,30.00,NNW,337,5.0,17.0,71,0.00,,,0.00,meteohub,2013-02-17 01:13:00,
2013-02-16 20:18:00,21.4,13.8,30.01,NNE,26,9.0,14.0,72,0.00,,,0.00,meteohub,2013-02-17 01:18:00,
2013-02-16 20:23:00,21.4,14.0,30.01,ENE,69,6.0,14.0,73,0.00,,,0.00,meteohub,2013-02-17 01:23:00,
2013-02-16 20:28:00,21.2,13.8,30.01,NNE,18,3.0,13.0,73,0.00,,,0.00,meteohub,2013-02-17 01:28:00,
2013-02-16 20:33:00,21.2,13.8,30.01,NNE,19,1.0,13.0,73,0.00,,,0.00,meteohub,2013-02-17 01:33:00,
2013-02-16 20:38:00,21.4,13.8,30.01,NNE,22,6.0,13.0,72,0.00,,,0.00,meteohub,2013-02-17 01:38:00,
2013-02-16 20:43:00,21.4,13.8,30.01,NNE,32,13.0,13.0,72,0.00,,,0.00,meteohub,2013-02-17 01:43:00,
2013-02-16 20:48:00,21.6,14.0,30.02,North,349,5.0,14.0,72,0.00,,,0.00,meteohub,2013-02-17 01:48:00,
2013-02-16 20:53:00,21.0,14.9,30.02,NE,51,13.0,14.0,77,0.00,,,0.00,meteohub,2013-02-17 01:53:00,
2013-02-16 20:58:00,20.5,15.8,30.03,NNW,342,4.0,16.0,82,0.00,,,0.00,meteohub,2013-02-17 01:58:00,
2013-02-16 21:03:00,20.1,16.0,30.03,NNW,347,3.0,16.0,84,0.00,,,0.00,meteohub,2013-02-17 02:03:00,
2013-02-16 21:08:00,19.9,16.0,30.03,NE,44,3.0,16.0,84,0.00,,,0.00,meteohub,2013-02-17 02:08:00,
2013-02-16 21:13:00,19.8,15.8,30.03,NE,43,0.0,12.0,84,0.00,,,0.00,meteohub,2013-02-17 02:13:00,
2013-02-16 21:18:00,19.8,15.8,30.03,NNE,27,4.0,9.0,84,0.00,,,0.00,meteohub,2013-02-17 02:18:00,
2013-02-16 21:23:00,19.6,15.6,30.04,WNW,285,0.0,6.0,84,0.00,,,0.00,meteohub,2013-02-17 02:23:00,
2013-02-16 21:28:00,19.6,15.3,30.04,NNW,342,1.0,6.0,83,0.00,,,0.00,meteohub,2013-02-17 02:28:00,
2013-02-16 21:33:00,19.8,14.9,30.04,NNE,15,1.0,6.0,81,0.00,,,0.00,meteohub,2013-02-17 02:33:00,
2013-02-16 21:38:00,19.8,14.5,30.04,ENE,61,4.0,4.0,80,0.00,,,0.00,meteohub,2013-02-17 02:38:00,
2013-02-16 21:43:00,19.8,14.4,30.04,NW,313,0.0,7.0,79,0.00,,,0.00,meteohub,2013-02-17 02:43:00,
2013-02-16 21:48:00,19.8,14.0,30.04,West,273,0.0,7.0,78,0.00,,,0.00,meteohub,2013-02-17 02:48:00,
2013-02-16 21:53:00,19.6,13.6,30.05,WNW,302,1.0,7.0,77,0.00,,,0.00,meteohub,2013-02-17 02:53:00,
2013-02-16 21:58:00,19.8,13.6,30.05,NNW,334,2.0,2.0,77,0.00,,,0.00,meteohub,2013-02-17 02:58:00,
2013-02-16 22:03:00,19.8,14.0,30.05,NNE,25,0.0,3.0,78,0.00,,,0.00,meteohub,2013-02-17 03:03:00,
2013-02-16 22:08:00,19.6,13.8,30.05,NNE,29,3.0,5.0,78,0.00,,,0.00,meteohub,2013-02-17 03:08:00,
2013-02-16 22:13:00,19.6,14.2,30.05,NW,324,0.0,5.0,79,0.00,,,0.00,meteohub,2013-02-17 03:13:00,
2013-02-16 22:18:00,19.4,14.0,30.05,NE,53,1.0,5.0,79,0.00,,,0.00,meteohub,2013-02-17 03:18:00,
2013-02-16 22:23:00,19.2,14.0,30.05,NE,35,0.0,5.0,80,0.00,,,0.00,meteohub,2013-02-17 03:23:00,
2013-02-16 22:29:00,19.2,14.0,30.05,NW,309,0.0,4.0,80,0.00,,,0.00,meteohub,2013-02-17 03:29:00,
2013-02-16 22:34:00,19.0,13.8,30.06,West,273,1.0,3.0,80,0.00,,,0.00,meteohub,2013-02-17 03:34:00,
2013-02-16 22:39:00,19.0,13.8,30.06,West,269,0.0,3.0,80,0.00,,,0.00,meteohub,2013-02-17 03:39:00,
2013-02-16 22:44:00,18.9,13.6,30.06,NW,316,0.0,2.0,80,0.00,,,0.00,meteohub,2013-02-17 03:44:00,
2013-02-16 22:49:00,18.7,13.5,30.06,WNW,298,0.0,3.0,80,0.00,,,0.00,meteohub,2013-02-17 03:49:00,
2013-02-16 22:54:00,18.5,13.3,30.06,West,271,0.0,3.0,80,0.00,,,0.00,meteohub,2013-02-17 03:54:00,
2013-02-16 22:59:00,18.3,13.3,30.06,West,270,0.0,3.0,80,0.00,,,0.00,meteohub,2013-02-17 03:59:00,
2013-02-16 23:04:00,18.3,12.6,30.06,SSW,195,0.0,2.0,78,0.00,,,0.00,meteohub,2013-02-17 04:04:00,
2013-02-16 23:09:00,18.7,11.8,30.06,West,280,0.0,2.0,74,0.00,,,0.00,meteohub,2013-02-17 04:09:00,
2013-02-16 23:14:00,18.9,10.9,30.06,West,281,1.0,6.0,71,0.00,,,0.00,meteohub,2013-02-17 04:14:00,
2013-02-16 23:19:00,18.9,10.8,30.06,NNE,25,1.0,6.0,70,0.00,,,0.00,meteohub,2013-02-17 04:19:00,
2013-02-16 23:24:00,19.0,10.6,30.06,NNW,342,1.0,6.0,69,0.00,,,0.00,meteohub,2013-02-17 04:24:00,
2013-02-16 23:29:00,19.0,10.2,30.06,ENE,61,0.0,8.0,68,0.00,,,0.00,meteohub,2013-02-17 04:29:00,
2013-02-16 23:34:00,19.0,10.2,30.06,WNW,282,1.0,8.0,68,0.00,,,0.00,meteohub,2013-02-17 04:34:00,
2013-02-16 23:39:00,19.2,9.3,30.06,NNE,26,5.0,6.0,65,0.00,,,0.00,meteohub,2013-02-17 04:39:00,
2013-02-16 23:44:00,19.2,9.0,30.06,NE,53,2.0,6.0,64,0.00,,,0.00,meteohub,2013-02-17 04:44:00,
2013-02-16 23:49:00,19.2,9.3,30.06,West,264,0.0,9.0,65,0.00,,,0.00,meteohub,2013-02-17 04:49:00,
2013-02-16 23:54:00,19.0,9.1,30.06,NE,38,1.0,9.0,65,0.00,,,0.00,meteohub,2013-02-17 04:54:00,
2013-02-16 23:59:00,19.0,9.1,30.06,WNW,294,2.0,6.0,65,0.00,,,0.00,meteohub,2013-02-17 04:59:00,